Temp
15 15 13 11 11 11 11 11 12 12 11 11 10 10 10 10 9 8 8 7 7 6
14 14 12 11 11 11 10 11 11 11 10 10 10 9 9 9 8 7 7 6 6 5
14 13 12 11 10 10 10 10 10 10 9 9 9 8 8 7 7 7 6 6 5 5
12 11 11 10 10 9 9 10 9 8 8 8 8 8 7 7 6 6 5 5 5 4
11 11 10 9 9 8 9 9 7 7 8 7 7 7 7 6 6 5 5 4 4 3
10 9 9 9 8 8 8 6 8 8 7 7 6 6 6 5 5 4 4 3 3 3
9 9 8 7 7 8 8 7 7 7 7 6 6 5 5 4 4 3 3 3 2 2
8 7 7 6 6 6 6 6 7 6 6 5 5 5 4 3 3 2 2 2 1 1
6 5 5 4 4 4 4 5 5 5 5 4 4 3 2 2 2 1 1 1 1 0
4 3 3 3 4 4 4 4 4 4 4 3 3 2 1 1 1 1 -0 -0 -0 0
2 1 2 4 3 2 2 2 2 3 2 2 1 1 0 0 -0 -0 -1 -1 -1 -1
3 2 2 1 1 1 1 2 2 2 1 1 1 0 -0 -1 -1 -1 -2 -2 -2 -2
1 1 0 0 2 3 3 2 2 1 1 1 1 -0 -1 -1 -2 -2 -2 -2 -2 -2
1 1 2 3 3 2 2 2 1 1 1 1 0 -0 -1 -1 -1 -2 -2 -3 -3 -3
Height
717 725 733 741 748 754 758 762 771 777 783 786 791 795 797 798 800 803 805 807 808 810
714 723 729 738 745 753 759 760 768 775 781 785 788 793 796 797 800 802 804 806 807 809
713 721 728 736 743 751 756 760 767 774 778 785 786 792 795 796 799 801 803 804 806 808
713 719 728 734 742 748 754 757 766 772 776 782 786 790 794 796 798 799 801 802 804 805
709 719 726 734 741 748 751 758 764 773 776 781 784 790 792 795 796 797 798 800 801 802
708 718 726 733 738 744 750 757 766 771 776 779 785 787 791 793 794 796 797 798 798 798
713 718 726 733 739 743 750 755 764 769 775 778 784 787 789 791 792 793 794 795 795 795
715 722 729 735 743 748 754 757 764 770 773 778 782 786 788 790 791 791 791 792 792 792
720 728 734 740 746 754 761 768 771 776 774 778 781 784 786 787 788 788 788 788 788 788
724 732 739 742 750 762 766 770 780 777 779 779 781 784 785 785 785 785 785 785 785 784
730 738 744 749 754 758 766 769 778 777 780 781 782 784 784 783 783 783 783 782 782 780
740 745 751 756 756 762 767 778 776 780 781 781 781 783 782 782 781 780 780 779 779 778
742 748 750 756 763 769 773 777 778 780 781 780 781 782 780 779 779 779 779 779 777 775
748 753 761 766 769 775 777 777 778 779 780 779 780 779 778 779 779 779 777 775 773 772
Wind_Speed
41 39 36 39 34 32 34 37 36 33 30 26 23 19 16 14 11 8 6 5 4 3
35 35 36 36 35 32 30 38 37 33 29 25 22 18 15 13 10 7 5 3 2 3
34 33 32 35 34 31 32 33 35 31 28 25 21 18 14 12 9 6 5 3 4 5
32 31 32 33 32 32 32 36 34 29 27 25 21 17 14 10 8 5 4 4 5 6
33 32 31 30 29 32 36 34 29 31 27 24 19 15 13 10 7 4 3 4 6 8
32 31 29 31 35 35 34 35 32 28 25 22 19 15 11 8 6 3 3 5 6 7
29 29 32 33 33 36 35 35 33 30 25 20 16 13 9 6 4 3 3 5 6 7
27 28 29 30 29 30 31 32 31 26 23 19 14 10 6 4 2 2 4 6 7 7
29 28 29 30 29 27 27 25 24 21 20 16 11 8 5 2 1 4 6 8 8 10
31 31 29 34 33 27 23 21 15 14 12 12 9 5 3 3 4 5 7 9 11 13
32 32 30 30 30 27 22 18 14 12 10 9 8 4 4 4 5 6 7 8 9 12
30 30 27 23 26 21 20 19 14 11 9 8 7 2 3 4 7 9 9 9 13 14
28 26 24 21 23 22 18 14 12 9 7 6 5 4 3 6 8 12 12 12 14 15
27 25 20 20 20 16 14 13 10 8 5 3 3 3 4 5 8 11 12 14 18 17
Wind_Direction
193 191 190 184 179 171 172 171 183 183 180 172 167 166 163 157 154 156 160 168 190 218
184 190 189 186 187 177 175 176 179 179 171 167 164 166 165 158 157 160 166 181 216 259
182 189 187 184 175 175 172 166 176 173 168 169 161 167 166 159 159 163 169 200 238 264
175 178 181 175 173 171 164 172 172 167 170 163 162 162 164 160 166 171 181 223 258 270
169 173 166 165 165 164 166 172 172 172 165 163 157 161 162 162 171 181 210 248 266 278
154 158 157 159 160 163 163 161 166 166 163 157 161 157 162 170 174 198 250 272 280 284
150 151 151 150 151 157 162 163 166 164 160 156 157 157 159 165 181 214 257 282 293 294
135 135 136 137 140 147 155 159 157 155 152 153 154 157 162 174 195 288 300 304 303 301
117 118 118 121 125 135 142 144 150 155 148 151 147 151 146 118 10 348 334 326 322 308
113 113 115 123 128 131 133 142 149 144 147 142 137 142 114 60 22 356 342 332 325 316
108 112 128 135 141 143 152 159 162 152 149 142 135 130 73 20 11 354 346 336 337 332
128 133 137 140 141 147 156 168 152 149 143 134 130 125 53 2 4 357 341 331 328 326
140 138 140 139 159 160 158 155 142 136 131 114 112 149 21 359 344 347 341 331 324 326
139 141 150 154 150 154 147 137 131 118 120 103 61 31 9 341 318 323 320 327 326 326